EN

Hourly Weather Abdrahmanovo

Today, 12 June, Saturday

Time Temperature Precipitation Wind Pressure Humidity
00:00 +13°C° 0 mm 3 mps 743 mmHg 84%
01:00 +13°C° 0 mm 3 mps 742 mmHg 83%
02:00 +13°C° 0 mm 3 mps 742 mmHg 82%
03:00 +14°C° 0 mm 4 mps 742 mmHg 80%
04:00 +14°C° 0 mm 3 mps 743 mmHg 77%
05:00 +14°C° 0.1 mm 3 mps 743 mmHg 78%
06:00 +14°C° 0.1 mm 3 mps 743 mmHg 79%
07:00 +14°C° 0.1 mm 3 mps 743 mmHg 79%
08:00 +16°C° 0 mm 3 mps 743 mmHg 77%
09:00 +17°C° 0 mm 3 mps 743 mmHg 75%
10:00 +17°C° 0 mm 3 mps 744 mmHg 77%
11:00 +17°C° 0.1 mm 4 mps 743 mmHg 77%
12:00 +15°C° 0.1 mm 4 mps 743 mmHg 76%
13:00 +15°C° 0.1 mm 5 mps 743 mmHg 76%
14:00 +16°C° 0 mm 5 mps 743 mmHg 74%
15:00 +18°C° 0 mm 4 mps 743 mmHg 72%
16:00 +19°C° 0 mm 4 mps 743 mmHg 70%
17:00 +19°C° 0 mm 4 mps 742 mmHg 71%
18:00 +18°C° 0 mm 3 mps 742 mmHg 73%
19:00 +17°C° 0 mm 2 mps 742 mmHg 74%
20:00 +17°C° 0 mm 2 mps 742 mmHg 76%
21:00 +17°C° 0 mm 2 mps 742 mmHg 77%
22:00 +16°C° 0 mm 2 mps 742 mmHg 79%
23:00 +16°C° 0 mm 2 mps 742 mmHg 79%

Tomorrow, 13 June, Sunday

Time Temperature Precipitation Wind Pressure Humidity
00:00 +16°C° 0 mm 3 mps 742 mmHg 78%
01:00 +16°C° 0 mm 3 mps 742 mmHg 78%
02:00 +15°C° 0 mm 4 mps 742 mmHg 80%
03:00 +15°C° 0 mm 4 mps 743 mmHg 81%
04:00 +15°C° 0 mm 4 mps 743 mmHg 83%
05:00 +16°C° 0 mm 5 mps 743 mmHg 82%
06:00 +16°C° 0 mm 6 mps 743 mmHg 80%
07:00 +17°C° 0 mm 6 mps 743 mmHg 79%
08:00 +19°C° 0 mm 6 mps 744 mmHg 76%
09:00 +20°C° 0 mm 7 mps 744 mmHg 72%
10:00 +21°C° 0 mm 7 mps 744 mmHg 69%
11:00 +22°C° 0 mm 7 mps 744 mmHg 66%
12:00 +23°C° 0 mm 7 mps 744 mmHg 64%
13:00 +23°C° 0 mm 7 mps 744 mmHg 61%
14:00 +24°C° 0 mm 7 mps 744 mmHg 61%
15:00 +24°C° 0 mm 6 mps 744 mmHg 61%
16:00 +26°C° 0 mm 6 mps 744 mmHg 61%
17:00 +25°C° 0.1 mm 5 mps 744 mmHg 64%
18:00 +23°C° 0.1 mm 5 mps 744 mmHg 66%
19:00 +22°C° 0.1 mm 4 mps 744 mmHg 69%
20:00 +20°C° 0 mm 4 mps 744 mmHg 72%
21:00 +19°C° 0 mm 3 mps 744 mmHg 75%
22:00 +17°C° 0 mm 3 mps 744 mmHg 77%
23:00 +17°C° 0 mm 3 mps 744 mmHg 77%

Day after tomorrow, 14 June, Monday

Time Temperature Precipitation Wind Pressure Humidity
00:00 +17°C° 0 mm 3 mps 744 mmHg 76%
01:00 +16°C° 0 mm 3 mps 744 mmHg 76%
02:00 +16°C° 0 mm 3 mps 744 mmHg 75%
03:00 +14°C° 0 mm 3 mps 744 mmHg 73%
04:00 +15°C° 0 mm 2 mps 744 mmHg 72%
05:00 +16°C° 0 mm 3 mps 744 mmHg 70%
06:00 +17°C° 0 mm 3 mps 744 mmHg 69%
07:00 +19°C° 0 mm 3 mps 745 mmHg 67%
08:00 +20°C° 0 mm 4 mps 745 mmHg 63%
09:00 +22°C° 0 mm 5 mps 745 mmHg 58%
10:00 +23°C° 0 mm 5 mps 745 mmHg 54%
11:00 +25°C° 0 mm 5 mps 745 mmHg 53%
12:00 +26°C° 0 mm 5 mps 745 mmHg 52%
13:00 +26°C° 0 mm 5 mps 745 mmHg 51%
14:00 +27°C° 0 mm 5 mps 745 mmHg 51%
15:00 +28°C° 0 mm 5 mps 745 mmHg 52%
16:00 +28°C° 0 mm 5 mps 744 mmHg 52%
17:00 +27°C° 0 mm 4 mps 744 mmHg 57%
18:00 +26°C° 0 mm 4 mps 744 mmHg 63%
19:00 +25°C° 0 mm 3 mps 744 mmHg 68%
20:00 +22°C° 0 mm 3 mps 744 mmHg 67%
21:00 +21°C° 0 mm 3 mps 744 mmHg 65%
22:00 +20°C° 0 mm 3 mps 744 mmHg 64%
23:00 +19°C° 0 mm 3 mps 744 mmHg 64%

15 June, Tuesday

Time Temperature Precipitation Wind Pressure Humidity
00:00 +18°C° 0 mm 3 mps 743 mmHg 64%
01:00 +18°C° 0 mm 3 mps 743 mmHg 64%
02:00 +18°C° 0 mm 2 mps 743 mmHg 62%
03:00 +18°C° 0 mm 2 mps 744 mmHg 61%
04:00 +17°C° 0 mm 2 mps 744 mmHg 60%
05:00 +18°C° 0 mm 2 mps 744 mmHg 60%
06:00 +20°C° 0 mm 1 mps 744 mmHg 61%
07:00 +22°C° 0 mm 1 mps 744 mmHg 61%
08:00 +23°C° 0 mm 2 mps 744 mmHg 59%
09:00 +24°C° 0 mm 2 mps 744 mmHg 56%
10:00 +25°C° 0 mm 3 mps 744 mmHg 53%
11:00 +26°C° 0 mm 3 mps 744 mmHg 51%
12:00 +27°C° 0 mm 4 mps 743 mmHg 49%
13:00 +28°C° 0 mm 4 mps 743 mmHg 46%
14:00 +28°C° 0 mm 4 mps 743 mmHg 47%
15:00 +29°C° 0 mm 4 mps 742 mmHg 47%
16:00 +29°C° 0 mm 4 mps 742 mmHg 47%
17:00 +28°C° 0 mm 3 mps 742 mmHg 53%
18:00 +27°C° 0 mm 2 mps 741 mmHg 59%
19:00 +26°C° 0 mm 2 mps 741 mmHg 64%
20:00 +25°C° 0 mm 2 mps 741 mmHg 64%
21:00 +23°C° 0 mm 2 mps 741 mmHg 63%
22:00 +21°C° 0 mm 2 mps 741 mmHg 63%
23:00 +21°C° 0 mm 1 mps 740 mmHg 64%

16 June, Wednesday

Time Temperature Precipitation Wind Pressure Humidity
00:00 +21°C° 0 mm 1 mps 740 mmHg 65%
01:00 +20°C° 0 mm 1 mps 740 mmHg 67%
02:00 +20°C° 0 mm 1 mps 740 mmHg 66%
03:00 +20°C° 0 mm 1 mps 740 mmHg 65%
04:00 +20°C° 0 mm 1 mps 740 mmHg 64%
05:00 +21°C° 0 mm 1 mps 740 mmHg 64%
06:00 +21°C° 0 mm 1 mps 740 mmHg 65%
07:00 +21°C° 0 mm 2 mps 740 mmHg 65%
08:00 +23°C° 0 mm 2 mps 740 mmHg 62%
09:00 +25°C° 0 mm 3 mps 740 mmHg 59%
10:00 +26°C° 0 mm 4 mps 740 mmHg 56%
11:00 +27°C° 0 mm 4 mps 740 mmHg 52%
12:00 +29°C° 0 mm 4 mps 740 mmHg 48%
13:00 +30°C° 0 mm 5 mps 740 mmHg 44%
14:00 +30°C° 0 mm 5 mps 739 mmHg 47%
15:00 +30°C° 0 mm 5 mps 739 mmHg 49%
16:00 +30°C° 0 mm 5 mps 739 mmHg 52%
17:00 +29°C° 0 mm 4 mps 738 mmHg 57%
18:00 +28°C° 0 mm 3 mps 738 mmHg 62%
19:00 +27°C° 0 mm 3 mps 738 mmHg 68%
20:00 +26°C° 0 mm 3 mps 737 mmHg 67%
21:00 +24°C° 0 mm 3 mps 737 mmHg 67%
22:00 +22°C° 0 mm 3 mps 737 mmHg 66%
23:00 +21°C° 0 mm 3 mps 737 mmHg 66%

17 June, Thursday

Time Temperature Precipitation Wind Pressure Humidity
00:00 +21°C° 0 mm 3 mps 736 mmHg 66%
01:00 +20°C° 0 mm 3 mps 736 mmHg 67%
02:00 +19°C° 0.3 mm 3 mps 736 mmHg 72%
03:00 +18°C° 0.3 mm 2 mps 736 mmHg 77%
04:00 +17°C° 0.3 mm 2 mps 736 mmHg 82%
05:00 +18°C° 0.4 mm 2 mps 736 mmHg 82%
06:00 +19°C° 0.4 mm 3 mps 736 mmHg 81%
07:00 +19°C° 0.4 mm 3 mps 736 mmHg 81%
08:00 +20°C° 0.5 mm 3 mps 736 mmHg 81%
09:00 +21°C° 0.5 mm 4 mps 736 mmHg 82%
10:00 +22°C° 0.5 mm 4 mps 736 mmHg 82%
11:00 +22°C° 0.3 mm 4 mps 736 mmHg 79%
12:00 +23°C° 0.3 mm 4 mps 737 mmHg 76%
13:00 +23°C° 0.3 mm 5 mps 737 mmHg 73%
14:00 +22°C° 0.3 mm 5 mps 737 mmHg 75%
15:00 +21°C° 0.3 mm 6 mps 738 mmHg 77%
16:00 +20°C° 0.3 mm 7 mps 738 mmHg 79%
17:00 +20°C° 0.1 mm 6 mps 738 mmHg 77%
18:00 +20°C° 0.1 mm 5 mps 739 mmHg 74%
19:00 +20°C° 0.1 mm 5 mps 739 mmHg 71%
20:00 +17°C° 0 mm 5 mps 740 mmHg 70%
21:00 +17°C° 0 mm 4 mps 740 mmHg 69%
22:00 +14°C° 0 mm 4 mps 741 mmHg 68%
23:00 +13°C° 0 mm 4 mps 741 mmHg 68%
Show more